IZ0CGP Weather Reports


time (UTC)temp
C
wind
direction
speed
KPH
gust
KPH
rain 1hr
cm
rain 24hr
cm
rain mn
cm
humidity
%
barometer
mb
20260507091526 18 334 3.2 6.4 0.00 0.51 0.30 71 1014.7
20260507090510 18 297 0.0 4.8 0.00 0.51 0.30 71 1014.7
20260507085506 19 142 0.0 3.2 0.00 0.51 0.30 67 1014.7
20260507084459 19 279 0.0 1.6 0.00 0.51 0.30 71 1014.7
20260507081422 20 113 0.0 0.0 0.00 0.51 0.30 68 1014.7
20260507080414 19 113 0.0 3.2 0.00 0.51 0.30 68 1014.7
20260507075409 18 165 3.2 3.2 0.00 0.51 0.30 70 1014.7
20260507074352 17 119 0.0 0.0 0.00 0.51 0.30 74 1014.7
20260507073338 17 13 0.0 0.0 0.00 0.51 0.30 77 1014.7
20260507071326 16 12 0.0 0.0 0.00 0.51 0.30 82 1014.7
20260507065235 15 12 0.0 0.0 0.00 0.51 0.30 83 1014.7
20260507062157 15 110 0.0 0.0 0.00 0.51 0.30 86 1014.7
20260507060124 14 129 0.0 0.0 0.00 0.51 0.30 91 1014.7
20260507055111 13 129 0.0 0.0 0.00 0.51 0.30 91 1014.7
20260507054053 13 107 0.0 0.0 0.00 0.51 0.30 92 1014.7
20260507053049 13 107 0.0 0.0 0.00 0.51 0.30 92 1014.7
20260507052039 13 107 0.0 0.0 0.00 0.51 0.30 92 1014.7
20260507051029 13 107 0.0 0.0 0.00 0.51 0.30 92 1014.7
20260507044940 13 107 0.0 0.0 0.00 0.51 0.30 92 1014.7
20260507043926 13 107 0.0 0.0 0.00 0.51 0.30 92 1014.7
20260507042910 13 107 0.0 0.0 0.00 0.51 0.30 91 1014.7
20260507041843 13 107 0.0 0.0 0.00 0.51 0.30 91 1014.7
20260507040838 13 107 0.0 0.0 0.00 0.51 0.30 91 1014.7
20260507035832 13 107 0.0 0.0 0.00 0.51 0.30 91 1014.7
20260507034821 13 107 0.0 0.0 0.00 0.51 0.30 91 1014.7
20260507033805 13 107 0.0 0.0 0.00 0.51 0.30 91 1014.7
20260507031725 13 107 0.0 0.0 0.00 0.51 0.30 91 1014.7
20260507030721 13 107 0.0 0.0 0.00 0.51 0.30 91 1014.7
20260507025657 13 107 0.0 0.0 0.00 0.51 0.30 91 1013.7
20260507024642 13 138 0.0 0.0 0.00 0.51 0.30 91 1013.7
20260507023626 13 138 0.0 0.0 0.03 0.51 0.30 91 1014.7
20260507021545 13 138 0.0 0.0 0.03 0.51 0.30 91 1014.7
20260507020540 13 138 0.0 0.0 0.03 0.51 0.30 91 1013.7
20260507015524 13 138 0.0 0.0 0.03 0.51 0.30 90 1013.7
20260507014511 13 150 0.0 0.0 0.05 0.51 0.30 90 1013.7
20260507012440 13 143 0.0 0.0 0.03 0.48 0.28 90 1013.7
20260507010421 13 144 0.0 8.0 0.10 0.48 0.28 90 1013.7
20260507005407 13 164 6.4 12.9 0.15 0.48 0.28 90 1013.7
20260507004401 13 140 8.0 14.5 0.15 0.46 0.25 91 1013.7
20260507003356 13 138 3.2 16.1 0.18 0.46 0.25 91 1013.7
20260507002351 13 195 3.2 9.7 0.18 0.46 0.25 91 1013.7
20260507001347 13 165 0.0 3.2 0.18 0.43 0.23 91 1014.7
20260507000343 13 145 1.6 12.9 0.10 0.36 0.15 91 1014.7
20260506235339 13 186 3.2 4.8 0.08 0.33 0.13 91 1014.7
20260506234322 13 140 0.0 0.0 0.05 0.30 0.10 91 1014.7
20260506233320 13 102 0.0 0.0 0.05 0.28 0.08 90 1014.7
20260506232301 13 101 0.0 0.0 0.08 0.28 0.08 90 1014.7
20260506231240 13 101 0.0 0.0 0.05 0.25 0.05 90 1014.7
20260506230159 13 101 0.0 0.0 0.05 0.25 0.05 90 1014.7
20260506225159 13 101 0.0 0.0 0.08 0.25 0.05 89 1014.7
20260506224151 13 182 0.0 0.0 0.08 0.25 0.05 89 1014.7
20260506223137 13 184 0.0 0.0 0.05 0.20 0.00 89 1014.7
20260506222126 13 184 0.0 1.6 0.08 0.20 0.00 89 1014.7
20260506221057 13 154 0.0 0.0 0.10 0.20 0.00 89 1013.7
20260506220105 13 154 0.0 0.0 0.13 0.20 0.00 89 1013.7
20260506215045 13 154 0.0 0.0 0.10 0.18 0.25 89 1014.7
20260506214035 14 165 0.0 8.0 0.10 0.18 0.25 88 1013.7
20260506213029 14 162 4.8 8.0 0.08 0.15 0.23 88 1013.7
20260506211025 14 162 3.2 8.0 0.03 0.10 0.18 87 1014.7
20260506210013 14 196 4.8 8.0 0.00 0.08 0.15 87 1014.7
20260506205010 14 151 3.2 3.2 0.00 0.08 0.15 88 1014.7
20260506204005 14 142 0.0 0.0 0.00 0.08 0.15 89 1014.7
20260506203002 14 141 0.0 4.8 0.03 0.08 0.15 89 1014.7
20260506201958 14 141 0.0 0.0 0.03 0.08 0.15 88 1013.7
20260506200943 14 142 0.0 3.2 0.03 0.08 0.15 88 1013.7
20260506195938 14 141 0.0 3.2 0.03 0.08 0.15 88 1013.7
20260506193909 14 145 4.8 9.7 0.03 0.08 0.15 88 1013.7
20260506191902 14 125 3.2 9.7 0.03 0.05 0.13 86 1013.7
20260506190900 15 124 0.0 4.8 0.05 0.05 0.13 86 1013.7
20260506185842 15 118 0.0 9.7 0.05 0.05 0.13 86 1013.7
20260506184841 15 161 8.0 11.3 0.05 0.05 0.13 86 1013.7
20260506183838 15 145 3.2 12.9 0.05 0.05 0.13 86 1013.7
20260506182834 15 163 8.0 12.9 0.05 0.05 0.13 86 1013.7
20260506181830 16 164 9.7 22.5 0.03 0.03 0.10 84 1013.7
20260506175823 16 162 11.3 20.9 0.00 0.00 0.08 79 1013.7
20260506174808 17 165 4.8 14.5 0.00 0.00 0.08 78 1013.7
20260506172800 17 150 3.2 12.9 0.00 0.00 0.08 76 1013.7
20260506171744 17 161 4.8 19.3 0.00 0.00 0.08 76 1013.7
20260506170738 17 198 9.7 12.9 0.00 0.00 0.08 76 1013.7
20260506165735 17 167 9.7 16.1 0.00 0.00 0.08 76 1012.7
20260506164729 17 167 9.7 12.9 0.00 0.00 0.08 76 1012.7
20260506163721 18 148 3.2 12.9 0.00 0.00 0.08 74 1012.7
20260506162722 18 177 3.2 16.1 0.00 0.00 0.08 73 1012.7
20260506160710 18 147 3.2 19.3 0.00 0.00 0.08 72 1012.7
20260506155701 18 193 9.7 24.1 0.00 0.00 0.08 71 1012.7
20260506154645 18 163 6.4 27.4 0.00 0.00 0.08 70 1012.7
20260506153632 18 165 1.6 12.9 0.00 0.00 0.08 71 1013.7
20260506152628 18 197 6.4 20.9 0.00 0.00 0.08 70 1012.7
20260506151626 18 181 12.9 20.9 0.00 0.00 0.08 70 1012.7
20260506150623 18 153 8.0 32.2 0.00 0.00 0.08 69 1012.7
20260506145609 18 178 14.5 27.4 0.00 0.00 0.08 69 1012.7
20260506144605 18 217 12.9 24.1 0.00 0.00 0.08 68 1012.7
20260506143600 18 164 14.5 24.1 0.00 0.00 0.08 68 1013.7
20260506142556 18 165 9.7 27.4 0.00 0.00 0.08 68 1013.7
20260506141543 18 178 14.5 32.2 0.00 0.00 0.08 68 1013.7
20260506140538 18 179 22.5 32.2 0.00 0.00 0.08 67 1012.7
20260506135535 19 192 11.3 24.1 0.00 0.00 0.08 68 1012.7
20260506134529 19 183 9.7 27.4 0.00 0.00 0.08 66 1012.7
20260506133516 20 201 16.1 24.1 0.00 0.00 0.08 65 1012.7
20260506132510 20 164 17.7 32.2 0.00 0.00 0.08 64 1012.7
20260506131456 20 179 6.4 27.4 0.00 0.00 0.08 62 1012.7
20260506130451 20 181 9.7 27.4 0.00 0.00 0.08 63 1013.7
20260506125432 20 178 25.7 27.4 0.00 0.00 0.08 62 1013.7
20260506124427 19 195 9.7 27.4 0.00 0.00 0.08 64 1013.7
20260506123422 20 199 14.5 24.1 0.00 0.00 0.08 64 1013.7
20260506115342 20 199 19.3 20.9 0.00 0.00 0.08 56 1013.7
20260506102542 20 155 14.5 24.1 0.00 0.08 0.08 61 1013.7
20260506100530 19 179 9.7 24.1 0.00 0.08 0.08 61 1013.7
20260506095524 19 145 4.8 24.1 0.00 0.08 0.08 63 1013.7
20260506094520 19 185 12.9 22.5 0.00 0.08 0.08 64 1013.7
20260506093513 19 138 9.7 24.1 0.00 0.08 0.08 66 1013.7